Location: Ecklingerode
(51.5036°N, 10.3122°E)
Time: 01:46:16
(UTC+00:00)

FALCON 9 DEB - Pass Details

Date: 29 October 2020
Orbit: 383 x 397 km, 53.0° (Epoch: 23 November)

Event Time Altitude Azimuth Distance (km) Brightness Sun altitude
Rises 16:24:25 0° 224° (SW) 2,305 8.0 -4.9°
Reaches altitude 10° 16:26:35 10° 214° (SW) 1,448 6.6 -5.3°
Maximum altitude 16:29:33 33° 148° (SSE) 690 4.0 -5.7°
Drops below altitude 10° 16:32:28 10° 82° (E) 1,432 5.1 -6.2°
Enters shadow 16:32:53 - 80° (E) 1,587 5.3 -6.2°
